Temp
21 22 22 22 22 23 23 23 23 24 24 24 24 25 25 25 25 25 25 25 25 25 24 24 24 24 24 24 23 23 23 23 23 23 22 21 21 21 22 22 22 22 23 24 24 25 25 25 26 27 27 25 25 25 24 24 24 24 24 24 23 24 25 26 27 26 26 26 26 26 26 24 24 24 24 24 25 25 24 24 23 21 20 20 20 20 20 19
22 22 22 22 23 23 23 23 23 24 24 24 24 25 25 25 25 25 25 25 25 24 24 24 24 24 24 24 23 23 23 23 23 22 21 21 21 21 22 22 22 22 23 23 24 24 25 25 26 26 26 26 26 25 24 24 24 24 25 24 24 25 25 26 26 26 26 25 25 25 25 24 24 24 24 23 23 23 22 22 22 20 19 19 19 19 19 18
22 22 22 22 23 23 23 23 23 24 24 24 24 25 25 25 25 26 25 25 25 24 24 24 24 24 24 24 23 24 23 23 24 22 21 21 21 21 21 22 22 22 22 22 23 24 24 25 25 26 26 26 26 25 24 24 24 25 24 24 24 25 26 26 26 26 26 25 24 24 24 24 24 23 23 23 23 21 20 20 20 19 18 18 18 18 18 17
21 22 22 22 22 23 23 23 24 24 24 24 24 25 25 25 25 26 25 25 25 25 24 24 24 24 24 24 24 23 23 23 24 22 21 21 21 22 22 22 22 22 22 22 23 23 24 25 26 26 26 25 26 26 25 24 24 24 24 24 25 25 25 25 25 25 25 24 23 24 24 23 23 24 23 23 22 20 19 19 19 18 18 17 17 17 17 16
21 22 22 22 22 23 23 23 24 24 24 24 25 25 25 25 25 26 26 25 25 25 25 24 24 24 24 24 24 23 23 23 23 21 21 22 22 22 22 22 22 22 23 23 23 24 25 26 26 26 25 26 27 26 25 25 23 24 25 25 25 25 25 25 25 25 24 23 23 24 24 23 23 23 22 22 20 19 19 18 18 18 18 17 17 16 16 15
21 21 22 22 22 23 23 23 24 24 24 24 25 25 25 25 25 26 25 25 25 26 25 24 24 24 23 24 23 23 23 23 22 21 21 22 22 22 23 23 23 23 23 23 24 25 26 26 27 26 26 26 26 26 25 25 24 24 25 25 24 24 25 25 25 24 24 23 23 24 23 23 23 22 21 21 19 18 18 18 18 18 18 17 16 16 15 15
21 21 21 22 22 22 23 23 24 24 24 25 25 25 25 26 25 26 25 25 25 25 25 24 24 24 23 23 23 23 23 22 21 20 21 22 22 23 23 23 23 23 23 24 24 25 24 25 26 26 25 25 26 26 25 25 24 23 24 25 24 24 24 24 24 24 23 23 23 24 23 23 23 21 21 20 18 18 18 18 18 17 17 17 16 15 14 14
21 21 21 22 22 22 23 23 23 24 24 25 25 25 25 26 26 25 25 25 25 25 25 24 24 24 24 23 22 24 24 21 20 21 21 22 22 23 23 23 23 23 24 24 24 24 23 24 25 24 24 25 25 25 25 25 25 24 24 25 24 23 24 24 24 23 23 23 23 23 23 23 23 21 20 19 18 18 17 17 17 17 16 16 16 15 14 13
21 21 21 21 22 22 22 23 23 24 24 25 25 25 25 25 26 25 25 25 25 25 24 24 24 24 24 23 23 25 23 20 20 21 21 22 22 22 22 23 23 23 23 24 23 23 23 23 24 23 23 24 24 25 25 23 24 24 24 24 24 24 24 24 24 23 23 23 23 22 22 23 22 21 19 18 17 17 17 17 17 16 16 15 15 15 14 13
20 21 21 21 22 22 22 23 23 23 24 24 25 25 25 25 25 25 25 25 25 24 24 24 24 24 24 23 24 25 22 20 20 20 21 22 22 22 22 22 22 22 22 23 23 22 22 22 22 22 22 23 23 24 24 23 23 24 24 24 23 24 24 24 23 24 23 22 22 21 22 22 22 21 18 17 17 17 17 16 16 16 15 15 14 14 14 13
20 20 21 21 21 22 22 22 23 23 24 24 25 25 25 25 25 25 25 25 25 25 24 24 24 24 24 24 25 24 21 20 20 20 21 21 22 22 22 22 22 21 21 22 22 21 21 20 21 21 21 22 23 24 24 23 23 23 23 23 23 23 24 23 23 24 23 22 22 21 21 21 21 21 18 17 17 17 16 16 16 15 15 15 14 14 13 13
20 20 21 21 21 22 22 22 23 23 24 24 24 25 25 25 25 25 25 25 25 25 24 24 24 23 23 24 23 22 21 20 20 21 21 21 21 21 21 21 21 21 20 21 21 20 20 20 20 20 22 23 23 24 24 23 23 23 23 22 23 23 22 23 23 23 22 21 22 21 21 21 20 20 18 18 17 17 16 15 15 15 15 14 14 14 13 13
20 20 20 21 21 21 22 22 22 23 23 24 24 24 25 25 25 25 25 25 25 25 24 24 25 24 24 24 22 21 21 21 20 21 21 21 21 21 21 21 21 22 20 20 20 20 19 19 19 20 22 22 23 23 22 22 22 22 22 22 22 22 21 22 23 23 22 21 22 21 20 21 21 19 18 18 17 16 15 15 15 14 14 14 14 14 13 13
19 20 20 20 21 21 22 22 22 23 23 24 24 24 25 25 25 25 25 25 25 25 24 24 25 24 24 23 21 21 21 21 20 21 21 21 21 21 21 20 21 21 21 20 19 20 19 19 19 19 21 21 22 23 22 22 22 22 23 22 22 21 21 23 23 22 21 21 22 21 20 21 21 18 17 18 17 16 15 14 14 14 14 14 13 13 13 13
19 20 20 20 21 21 21 22 22 23 23 24 24 24 25 25 25 25 24 25 25 25 24 24 24 24 24 22 21 22 21 21 21 21 21 22 21 21 20 21 21 21 21 20 19 19 19 19 19 20 21 22 22 22 22 22 21 23 23 21 23 22 21 23 23 22 21 21 22 21 20 21 19 17 18 17 16 15 14 14 14 14 14 13 13 13 13 13
19 19 20 20 21 21 21 22 22 22 23 23 24 25 25 25 25 25 24 25 25 25 24 25 25 24 24 23 22 22 22 21 21 21 21 21 20 20 20 21 21 21 20 20 19 19 19 19 19 20 21 22 22 22 23 23 21 23 23 21 22 22 22 22 22 22 21 21 22 21 20 21 19 17 17 17 16 15 14 14 14 13 13 13 13 12 12 12
19 19 20 20 20 21 21 21 22 22 23 23 24 25 25 25 25 24 24 25 25 25 24 24 24 24 24 22 22 22 21 21 21 21 21 21 21 20 20 20 22 21 20 20 19 19 19 20 20 21 21 21 23 23 22 21 21 22 22 21 21 22 21 21 21 21 21 20 21 21 20 21 19 17 17 16 16 15 14 14 13 13 13 12 12 12 12 12
18 19 19 20 20 21 21 21 21 22 23 23 24 25 25 25 25 23 24 25 25 24 24 24 24 24 23 22 22 21 20 20 21 21 21 21 21 20 19 20 21 21 21 21 20 20 21 21 22 22 22 22 23 23 21 20 20 20 21 20 20 21 21 21 21 20 20 20 20 20 20 21 19 16 16 16 15 15 14 13 13 13 13 12 12 12 12 12
18 18 19 19 20 20 21 21 21 22 22 23 24 25 25 25 24 23 23 24 24 24 24 24 23 23 22 21 21 21 20 20 20 21 21 21 21 20 20 20 20 20 21 22 22 22 22 22 22 22 22 22 22 21 21 21 21 20 20 20 19 20 20 21 22 20 20 20 20 20 20 21 20 17 16 16 15 14 13 13 13 12 12 12 12 12 12 12
17 18 18 19 20 20 20 21 21 21 22 22 23 24 24 22 24 24 21 21 23 22 23 22 21 21 21 20 20 20 20 20 20 21 21 21 21 20 21 21 21 21 21 23 23 22 22 22 22 21 21 21 21 21 21 21 21 20 20 20 19 20 20 21 22 20 20 20 19 20 20 20 21 18 16 15 15 14 13 13 12 12 12 12 12 12 12 12
17 17 18 18 19 20 20 20 21 21 21 22 23 22 21 19 21 21 17 19 20 19 20 20 19 19 20 19 19 19 19 20 21 21 21 21 21 21 23 23 22 22 23 23 23 22 22 21 21 20 20 20 20 20 20 20 20 20 20 20 20 20 20 21 21 20 20 19 18 20 19 19 21 19 15 15 14 13 13 13 12 12 12 12 12 11 12 12
17 17 17 18 19 19 20 20 20 21 21 22 21 19 16 14 16 16 15 18 19 17 18 18 17 19 19 19 19 18 19 21 21 21 21 21 22 22 22 22 22 22 22 23 23 22 21 21 20 20 20 20 20 20 20 19 20 20 19 19 19 20 20 20 21 20 20 19 18 19 19 19 20 18 15 15 14 13 13 13 12 12 12 12 12 11 12 11
16 16 17 18 18 19 20 20 20 20 21 20 18 15 14 13 14 14 14 17 18 17 18 18 18 20 20 19 19 18 20 22 22 20 19 21 22 21 21 22 22 21 22 23 22 21 20 21 20 19 19 19 20 20 19 19 20 19 19 19 19 20 19 18 19 19 19 19 18 19 18 18 19 16 15 15 14 13 13 12 12 12 12 11 12 12 11 11
16 16 16 18 18 19 20 19 19 20 18 17 15 13 14 14 14 14 15 18 20 19 18 18 19 20 20 19 19 19 21 21 21 20 19 20 21 21 21 21 21 21 22 22 21 20 21 20 19 19 19 19 19 19 19 19 19 20 20 19 19 18 17 17 18 18 18 18 18 18 17 18 17 15 14 14 13 12 12 11 12 12 12 12 12 12 11 11
15 15 16 17 18 19 19 19 19 18 17 15 13 13 14 14 14 14 15 19 21 19 18 18 18 19 20 19 19 19 21 21 20 19 19 19 20 21 21 21 20 21 22 21 20 20 20 19 18 19 19 18 18 18 19 19 18 19 18 17 17 16 16 17 17 17 16 16 18 18 16 17 17 15 14 13 12 12 12 12 12 11 12 12 12 11 11 11
14 15 15 17 18 19 19 18 17 17 17 14 12 14 14 14 14 13 16 20 21 20 19 19 19 20 19 19 19 19 20 20 19 18 18 18 18 20 20 21 21 21 21 21 20 20 20 19 17 18 18 18 18 18 19 18 17 18 17 15 16 16 16 16 16 16 15 16 18 19 16 15 16 15 14 12 12 12 12 12 12 12 12 12 11 11 11 10
12 13 15 16 17 18 19 18 17 18 17 14 13 14 14 14 13 13 17 20 20 21 19 18 19 19 19 19 19 19 21 20 18 18 18 17 18 19 20 21 22 21 20 20 19 19 20 18 17 18 17 17 18 18 18 17 17 17 15 15 15 16 16 16 16 15 15 16 17 18 17 15 15 16 15 13 12 12 12 12 12 12 12 11 11 11 10 10
11 13 14 15 16 17 17 17 16 16 16 15 14 14 14 14 13 15 19 20 21 22 20 19 18 18 19 19 18 19 21 21 20 19 18 17 18 19 20 20 20 20 20 19 19 19 19 18 17 17 17 17 17 17 16 16 17 16 15 15 15 16 16 16 16 15 15 15 15 17 18 15 15 16 14 13 13 12 12 12 11 11 11 11 11 10 10 10
11 12 13 14 16 16 16 16 15 15 15 15 15 14 14 12 13 17 20 20 22 22 21 19 18 18 19 19 19 20 20 21 21 19 17 17 18 18 19 19 19 19 20 19 19 19 18 17 17 17 17 17 17 16 15 16 16 16 15 15 15 15 15 15 15 14 15 15 14 16 17 15 15 14 13 13 13 12 12 12 11 11 11 11 10 10 10 10
11 11 12 14 15 15 16 15 14 15 16 15 15 14 13 13 16 20 19 20 22 22 20 19 18 20 20 19 20 21 20 21 21 18 18 19 18 18 18 17 17 18 18 18 18 18 17 15 15 16 16 16 16 15 15 15 16 15 15 15 15 15 15 15 15 15 15 15 14 15 16 15 14 14 13 13 13 13 13 12 11 11 11 10 10 10 9 9
11 11 11 13 14 15 15 14 14 16 16 15 15 13 13 16 20 20 19 21 21 20 20 19 19 20 20 20 21 21 21 21 21 19 19 19 18 19 18 17 17 17 17 17 17 17 17 15 15 15 15 15 15 15 15 14 15 15 15 15 15 15 16 15 15 15 14 14 14 14 15 15 14 15 15 13 13 13 12 11 10 10 10 10 9 9 9 9
11 11 11 12 14 14 15 14 15 16 15 14 14 14 16 19 19 20 20 22 21 20 20 20 20 20 20 19 20 20 20 21 21 20 19 19 19 19 19 19 19 18 17 18 17 17 16 15 15 14 14 15 15 15 15 14 14 14 14 15 14 15 16 15 15 15 15 14 14 13 14 14 13 15 16 13 12 12 11 10 10 10 10 9 9 9 9 8
11 11 11 12 13 14 14 15 15 16 15 14 14 16 18 18 18 20 21 22 21 20 20 19 19 19 19 19 20 20 19 19 21 20 19 18 18 18 19 18 18 18 18 18 17 17 16 15 14 14 14 14 15 15 15 14 14 14 14 15 15 15 14 14 14 15 15 15 14 13 13 13 13 15 15 13 11 11 11 10 10 10 9 9 9 8 8 8
11 11 11 12 12 13 14 14 15 15 14 14 16 18 18 17 19 20 21 22 21 19 19 19 19 19 18 19 20 20 19 19 20 19 18 17 16 17 18 17 17 17 17 17 17 17 17 16 15 14 15 14 14 15 15 15 15 15 15 15 15 15 15 14 14 14 14 14 13 14 13 13 14 14 13 12 11 11 11 11 10 10 9 9 8 8 8 7
11 10 11 12 12 13 13 14 15 14 13 15 17 18 17 17 19 20 21 22 21 19 19 18 18 18 18 18 19 19 19 19 19 17 17 17 16 17 18 18 16 16 17 17 17 17 17 17 15 13 14 13 13 14 14 15 15 14 15 14 14 15 15 15 14 13 13 12 12 13 13 14 14 12 12 12 11 11 11 11 10 9 9 9 8 7 7 7
10 10 11 11 12 13 13 14 15 13 13 16 17 16 17 18 20 20 21 21 20 20 19 18 18 18 18 19 18 18 18 17 17 17 17 17 17 17 19 19 17 16 17 17 18 18 17 16 13 12 13 12 12 13 13 14 15 14 14 14 13 13 14 14 13 13 12 11 11 12 12 14 14 12 12 12 11 11 11 10 10 9 9 8 7 7 7 6
10 10 10 11 12 12 13 14 14 12 13 16 16 16 18 19 21 21 21 20 19 20 20 19 19 19 19 19 19 17 17 16 17 17 17 17 17 18 18 18 16 16 17 17 18 18 17 16 13 12 13 12 10 11 12 13 13 13 13 13 13 13 13 13 11 11 11 10 11 12 12 13 13 12 11 11 11 11 10 10 9 9 8 8 7 7 7 6
9 9 10 11 11 12 13 13 12 12 14 16 15 16 18 19 21 21 20 19 19 19 19 19 19 20 20 20 19 17 16 16 16 16 17 18 18 18 18 17 16 15 15 16 16 16 16 16 13 10 11 12 11 12 13 12 12 12 12 12 13 13 12 12 11 10 10 10 11 13 12 12 14 13 11 10 11 10 10 9 9 8 8 7 7 6 6 6
9 10 10 11 11 11 12 12 11 12 14 15 14 16 18 18 20 21 20 20 20 19 18 18 19 20 20 19 20 18 16 17 17 16 17 18 18 18 18 17 16 13 13 14 15 15 15 15 13 10 9 11 12 12 13 12 11 11 11 12 13 12 12 12 11 11 11 11 11 12 12 12 14 14 12 11 11 10 9 9 8 8 7 7 7 6 6 6
9 10 11 10 9 9 10 11 11 13 14 14 15 16 18 18 19 20 20 20 20 19 18 19 19 19 19 19 20 18 17 17 17 17 18 18 18 18 17 17 15 12 12 13 13 14 15 15 14 11 9 11 12 12 12 13 12 11 11 11 12 12 12 12 11 11 11 10 10 10 10 11 13 13 12 11 10 9 9 9 8 8 7 7 6 6 6 6
9 11 10 9 8 8 10 10 12 13 13 14 15 16 17 18 19 19 20 20 20 20 19 19 19 18 19 18 19 19 18 17 17 17 17 18 18 18 17 16 14 12 12 12 13 13 14 14 13 12 10 11 12 11 11 12 12 11 11 12 11 11 11 11 10 11 10 10 10 10 10 11 12 12 12 11 10 10 9 9 8 8 7 6 6 6 6 5
10 11 10 8 7 8 10 12 12 13 13 14 15 16 17 18 18 19 19 19 19 19 19 19 18 18 18 18 18 19 18 18 17 17 17 17 18 18 16 14 13 12 12 12 12 12 12 13 12 12 12 11 11 10 9 9 10 10 11 12 12 12 11 10 10 10 10 9 10 10 9 10 12 12 12 11 10 10 10 9 8 7 7 6 6 6 6 5
10 10 8 7 7 8 11 12 12 13 13 14 16 17 17 18 18 18 18 18 17 18 18 18 18 18 18 18 18 18 18 17 17 17 17 18 17 15 13 13 12 12 13 12 12 11 12 12 11 11 11 11 10 9 9 9 9 10 10 11 11 11 11 11 10 10 10 9 10 9 9 10 11 12 12 11 10 10 10 9 8 7 6 6 6 5 5 5
10 10 8 7 7 8 10 13 13 13 13 15 15 16 17 17 17 17 17 17 17 17 17 17 17 17 18 18 18 18 18 17 17 17 17 18 15 10 10 12 12 12 12 11 12 12 12 12 11 9 9 10 10 10 9 9 9 9 10 11 10 11 11 10 10 10 9 9 9 8 8 10 10 11 11 11 10 10 10 8 7 6 6 6 5 5 5 4
11 11 9 7 7 8 10 13 13 14 14 14 15 15 16 16 17 17 17 17 17 18 17 17 18 17 17 18 17 17 17 17 17 17 16 17 13 8 7 9 10 10 9 8 10 12 12 11 10 10 10 11 12 11 10 10 9 9 10 10 10 10 10 10 9 9 8 9 10 9 8 10 11 10 10 10 10 10 9 8 7 6 6 5 5 5 4 4
11 11 9 8 7 8 9 10 11 13 15 14 14 15 15 15 16 17 17 17 17 18 17 17 17 17 17 17 16 16 16 17 17 16 16 15 11 7 6 7 7 7 7 7 9 10 9 8 9 10 10 11 12 12 11 10 9 9 9 10 10 10 10 9 9 8 8 9 9 9 9 10 10 10 10 10 10 10 9 7 6 6 5 5 5 4 4 4
11 11 10 9 8 8 8 9 10 12 14 15 15 15 15 15 16 16 16 17 17 17 17 17 17 16 16 16 16 15 16 16 16 15 16 14 8 5 6 6 6 6 7 7 8 9 8 7 8 9 10 11 12 11 10 10 10 9 9 9 10 9 9 9 8 8 9 9 8 9 10 9 9 10 10 10 10 9 8 6 5 5 5 5 4 4 3 3
11 12 13 12 11 10 9 9 10 11 13 14 14 15 15 15 15 16 16 16 17 17 16 16 16 16 16 16 15 15 15 15 14 14 15 13 8 6 6 6 5 6 6 6 6 7 7 7 8 9 8 9 10 10 10 10 9 9 9 9 9 9 9 8 8 8 9 8 8 9 10 9 9 9 9 9 9 8 6 6 5 5 5 4 4 3 3 3
10 12 13 13 13 12 11 10 10 10 11 13 13 14 14 14 15 16 16 15 15 16 16 15 15 16 16 16 15 15 15 15 14 14 14 13 10 8 7 7 5 4 5 5 5 6 6 6 7 8 8 8 9 9 10 9 9 9 9 9 9 9 9 9 8 8 8 8 8 9 9 8 9 9 9 9 9 7 6 6 6 5 5 4 3 3 2 2
11 11 13 13 13 13 13 11 11 10 11 12 12 13 13 13 14 15 16 16 14 14 15 15 15 16 16 15 15 15 15 15 15 15 14 13 11 8 7 8 7 4 4 5 5 5 6 6 6 6 6 7 7 8 8 8 8 8 7 8 8 8 9 9 8 8 7 7 8 8 7 8 9 9 9 9 8 7 6 6 5 5 4 4 3 2 2 2
12 13 14 13 12 13 13 12 11 10 10 11 11 12 13 13 13 14 15 16 16 15 15 14 15 15 15 15 14 14 15 16 16 15 14 14 13 11 9 9 7 4 3 4 4 5 5 5 5 5 5 6 6 6 6 7 6 6 6 6 7 7 8 8 8 8 8 7 7 7 6 7 8 9 9 8 8 7 6 5 5 4 4 3 3 2 2 1
11 12 14 13 12 13 13 13 12 11 11 12 12 12 13 13 14 14 14 15 16 16 16 16 15 14 14 15 15 15 15 14 12 10 10 11 11 11 9 8 7 6 4 3 4 4 4 4 5 5 5 5 5 5 5 5 5 5 6 6 6 7 7 8 8 8 8 8 7 6 6 7 8 8 8 8 7 6 5 5 4 3 3 3 2 2 1 1
Height
828 826 825 824 823 821 820 818 817 815 813 811 809 807 805 804 802 800 798 796 795 793 791 789 788 788 789 789 788 788 788 788 788 787 788 791 791 790 789 789 788 787 786 785 784 783 782 782 783 782 782 783 784 785 787 786 786 790 795 800 801 796 793 790 787 788 789 789 788 785 785 790 793 790 786 785 786 789 790 792 793 796 799 802 804 804 804 805
828 827 825 824 823 821 820 819 817 815 814 811 809 808 805 804 802 800 799 797 795 793 791 789 788 788 788 789 789 788 788 788 788 788 790 792 791 790 790 789 788 787 785 784 783 783 783 783 782 782 782 784 784 785 789 787 788 793 796 800 800 795 790 785 784 785 786 789 789 786 787 789 792 791 788 790 793 792 796 798 797 800 802 804 805 805 806 806
828 827 826 825 823 822 820 819 817 816 814 812 810 808 806 804 803 801 799 797 795 793 791 789 789 788 788 789 788 789 789 788 790 791 792 792 792 791 790 789 788 787 786 785 784 783 783 783 782 782 784 786 784 785 790 789 789 791 795 802 798 791 787 783 783 785 785 788 790 790 788 789 791 789 789 792 795 797 801 803 802 805 806 806 807 807 808 807
829 828 826 825 824 822 820 819 817 816 814 812 810 808 807 804 803 801 799 797 795 793 791 789 789 788 788 788 788 789 788 791 795 794 794 793 792 790 789 789 788 787 786 785 785 784 783 782 781 781 785 788 784 784 790 790 791 792 794 798 793 788 788 785 783 784 785 788 791 791 789 791 790 788 790 790 797 804 804 805 805 807 808 808 809 808 809 808
829 828 827 825 824 822 820 819 817 816 814 812 810 808 807 805 803 801 799 797 795 793 790 790 789 788 787 787 789 789 790 799 800 795 794 793 792 790 789 789 788 788 786 786 785 784 783 780 779 781 785 788 784 786 790 788 790 794 791 790 788 788 789 785 782 784 786 789 791 790 790 792 789 789 792 793 802 808 806 805 805 806 808 808 809 810 810 809
830 828 827 825 824 823 821 819 817 815 814 812 810 808 806 805 803 801 799 797 795 793 791 790 790 788 788 787 789 789 794 804 800 794 795 792 792 791 789 789 788 788 787 786 785 784 783 781 781 784 786 787 786 787 789 786 788 795 791 787 788 789 789 785 783 785 786 790 791 790 790 790 790 794 795 796 804 806 805 806 806 807 808 809 810 811 811 811
830 828 827 826 824 823 821 819 817 815 814 812 810 808 806 804 802 801 799 797 795 793 791 791 790 789 789 788 790 789 793 801 797 795 795 792 792 790 790 789 788 788 787 787 787 786 786 785 785 786 789 789 787 787 787 785 787 794 793 788 789 789 788 786 784 785 786 790 790 788 789 789 792 796 797 800 805 805 806 806 807 809 809 810 811 812 814 814
830 829 827 826 824 823 821 819 817 815 814 812 810 808 806 804 802 801 799 797 795 794 792 791 790 790 789 789 790 791 794 798 796 795 794 792 792 790 790 789 789 789 788 789 788 788 788 788 788 788 791 789 788 788 786 787 788 791 792 788 788 789 787 786 785 786 787 788 788 787 789 788 789 793 799 804 806 806 807 808 808 810 811 811 812 814 815 816
830 829 827 826 824 823 821 819 818 816 813 812 810 808 806 804 802 800 799 798 795 794 792 791 791 790 789 789 789 794 798 797 796 795 794 793 792 791 790 790 790 789 789 790 789 789 790 791 790 790 793 791 789 788 786 792 793 788 789 788 788 788 786 786 786 786 787 787 788 789 789 788 787 792 802 805 806 808 808 809 809 810 812 812 814 815 816 817
830 828 827 826 824 823 821 819 818 816 814 812 810 808 806 804 802 800 799 797 795 794 792 791 791 789 790 789 791 798 799 795 796 795 794 793 792 791 791 791 791 790 790 790 790 791 791 793 792 791 793 792 790 789 788 792 792 786 787 788 787 788 785 786 787 785 787 788 788 791 791 789 786 790 804 807 804 807 808 810 810 810 812 813 815 816 817 817
830 828 827 826 824 823 821 819 817 815 814 812 810 808 806 804 802 800 798 797 796 794 793 792 791 790 790 790 794 799 797 795 796 794 794 793 792 792 791 792 792 791 792 791 791 792 792 793 792 792 795 793 790 789 787 787 787 785 787 789 787 787 786 786 788 786 787 789 787 789 791 791 788 790 801 804 803 806 808 810 811 811 812 813 815 817 818 818
830 828 827 826 824 823 821 819 817 815 813 811 810 807 806 804 802 800 798 797 795 793 792 791 791 791 790 791 796 797 795 795 795 794 794 793 793 792 792 793 792 792 792 792 792 792 793 793 793 796 794 792 791 789 788 785 785 786 788 793 788 786 790 788 787 786 787 790 787 788 793 793 792 794 797 799 802 804 808 811 812 812 812 813 815 817 818 817
829 828 827 826 824 822 821 819 817 815 813 811 809 807 805 803 801 799 797 796 795 793 792 791 791 790 791 795 797 795 795 795 794 794 794 793 793 793 792 793 792 792 792 793 793 792 793 793 794 795 792 793 793 790 789 786 787 789 788 792 792 794 796 788 786 786 787 790 786 790 801 795 789 793 796 798 801 804 808 811 811 811 811 813 815 816 817 817
829 828 827 825 824 822 821 819 817 815 813 811 809 806 804 802 800 798 797 796 794 792 791 790 790 789 792 797 796 795 795 795 795 794 794 794 793 793 793 793 792 792 792 792 793 792 793 793 794 795 792 793 790 788 790 789 791 790 788 791 793 799 798 786 784 787 790 791 784 793 806 797 790 796 797 798 800 803 808 810 810 810 812 814 815 816 817 816
829 828 827 825 824 822 820 819 817 814 813 810 808 805 803 801 799 797 796 796 793 792 791 790 790 790 794 798 796 795 795 794 795 794 794 793 793 793 793 792 792 791 792 792 793 793 793 793 795 795 791 788 789 793 793 792 793 790 793 797 791 794 796 787 784 786 790 790 783 793 804 797 796 799 796 798 801 802 807 809 810 810 812 814 815 816 817 815
829 828 827 825 824 822 820 818 816 814 812 810 807 804 802 800 798 796 796 795 793 792 791 791 791 792 798 799 795 794 795 795 795 794 794 793 793 793 792 792 791 791 791 792 792 793 793 794 794 793 791 790 793 797 794 794 797 792 794 800 794 794 796 791 788 785 787 790 785 791 799 795 798 800 797 799 800 801 806 808 809 811 812 814 814 815 815 814
829 828 827 825 824 822 821 819 817 814 812 809 807 803 800 799 797 795 795 795 794 792 792 792 790 791 796 797 795 796 795 795 795 794 793 793 793 793 792 791 790 791 791 792 792 792 792 794 793 792 793 794 791 792 800 806 805 798 796 801 798 795 796 796 794 788 786 791 789 790 794 792 795 800 799 799 799 801 805 807 810 811 812 813 814 815 814 814
829 828 827 825 824 823 821 819 817 815 812 809 806 802 799 798 796 795 795 794 792 792 793 792 792 798 801 797 796 797 795 795 795 794 793 792 792 792 792 792 791 791 792 793 793 792 792 791 791 794 794 793 792 797 810 815 810 808 806 807 805 800 800 798 794 791 788 790 792 792 793 789 792 800 799 798 799 801 805 808 810 811 812 813 813 813 813 814
828 827 827 826 824 823 821 820 817 815 813 809 806 802 798 796 795 794 794 794 795 797 799 798 798 805 804 798 796 796 795 795 794 794 793 792 792 791 791 791 791 793 794 795 794 790 791 792 793 799 799 797 799 803 809 809 807 810 808 809 811 808 804 795 789 791 789 791 793 793 793 787 789 798 799 798 799 802 806 808 810 812 812 813 813 813 814 815
828 827 827 826 825 823 822 820 818 816 813 810 806 801 800 801 799 798 797 797 798 800 801 800 800 802 800 797 797 796 795 795 794 793 793 792 791 790 790 790 791 794 796 796 795 790 791 799 801 802 803 801 801 801 802 804 804 806 808 809 809 807 803 792 788 789 787 793 795 790 792 788 784 791 797 799 801 804 807 808 810 812 813 813 813 814 815 815
827 827 826 826 825 823 822 821 818 817 814 812 807 804 810 814 812 812 809 801 798 798 799 798 799 800 799 798 797 796 796 795 794 793 793 792 790 791 791 790 793 797 795 793 793 790 794 804 806 802 802 801 800 800 802 804 804 805 807 807 806 804 800 791 788 789 786 793 798 790 792 789 781 787 795 798 802 804 806 808 810 811 813 813 813 814 815 815
827 827 826 826 824 823 822 821 819 818 816 813 810 811 817 820 819 820 819 810 800 798 799 799 799 799 798 798 797 797 797 796 796 794 793 792 790 794 795 793 798 800 795 791 793 797 801 804 804 801 800 799 799 800 802 805 805 806 806 807 807 800 797 793 788 788 787 794 798 791 791 787 779 785 795 797 800 803 804 807 810 811 812 813 813 814 814 815
827 826 825 825 824 824 822 821 820 818 816 815 814 817 819 820 819 819 821 818 806 798 799 799 799 798 797 797 797 797 797 796 796 795 793 793 792 795 798 797 800 801 797 794 798 807 809 802 799 799 798 799 800 800 802 804 804 804 804 806 805 799 802 804 796 792 792 794 794 790 790 787 783 789 795 797 800 803 806 808 809 811 812 812 812 813 814 815
825 825 825 824 824 823 821 821 820 818 818 816 817 819 819 819 819 819 819 815 805 798 798 798 797 796 796 796 796 796 797 795 795 796 794 794 794 795 797 797 801 801 798 797 801 806 805 799 797 798 798 800 802 802 802 804 805 802 801 803 805 803 807 808 803 798 796 794 791 790 792 785 784 794 796 798 803 805 807 809 810 810 811 811 811 812 813 813
824 825 824 823 823 822 822 821 820 820 819 818 819 819 819 819 818 819 818 814 808 801 798 798 797 797 795 795 796 795 795 794 795 796 794 794 796 796 796 796 800 802 798 798 802 803 799 797 798 799 800 801 804 805 801 803 808 805 804 807 808 809 809 808 806 805 805 802 791 791 799 789 782 792 797 800 804 804 806 807 808 809 809 810 810 811 812 812
823 824 823 823 822 821 821 820 820 821 818 820 821 819 820 819 818 819 816 817 814 802 799 800 797 797 795 795 796 795 798 798 795 794 794 795 795 796 799 796 796 800 799 798 801 801 797 797 800 801 802 802 804 805 800 802 809 810 808 810 810 810 810 809 808 810 812 806 789 789 803 798 787 789 793 799 802 802 803 804 805 808 808 808 809 810 812 813
823 823 822 822 821 820 820 820 821 820 819 821 819 819 820 817 819 817 816 826 818 798 800 803 797 797 796 795 795 797 801 798 794 794 793 796 795 795 801 800 796 798 796 800 805 800 794 798 802 801 803 805 804 804 802 803 809 810 809 810 810 809 810 808 808 811 809 801 792 788 796 800 791 782 784 794 799 800 801 803 805 806 806 808 809 810 811 812
822 822 821 821 821 820 820 820 821 819 820 821 818 820 818 817 820 815 822 836 815 790 796 800 797 797 795 795 796 797 797 792 795 797 793 795 796 795 801 800 799 799 795 803 811 800 793 800 802 801 803 804 803 803 803 804 807 808 808 809 808 807 808 805 806 809 805 802 802 791 790 798 789 779 783 790 795 799 799 801 804 804 806 807 808 810 810 810
821 821 821 821 820 820 820 820 820 820 820 819 819 820 817 818 819 814 830 837 805 786 794 796 798 798 795 798 797 794 794 791 794 796 794 795 795 796 801 799 799 800 795 799 804 797 795 800 799 799 803 802 801 803 803 805 805 805 806 806 806 806 804 804 806 807 804 805 804 792 789 795 788 783 790 791 790 794 795 797 801 803 805 806 807 809 809 809
821 820 820 820 819 820 819 819 819 819 819 819 819 819 817 819 818 824 841 830 799 793 797 797 800 797 796 800 796 793 795 792 792 795 796 795 795 796 798 799 800 802 799 798 799 796 797 802 800 800 800 798 800 804 803 804 804 804 805 803 805 803 800 803 803 803 807 804 799 792 787 791 791 783 783 785 783 783 787 794 800 802 803 805 806 807 807 806
820 820 820 819 819 819 819 819 819 818 819 819 819 818 819 819 819 832 837 811 795 801 799 800 802 796 797 802 799 796 795 792 791 795 797 796 798 799 799 802 802 804 805 802 800 798 798 802 801 799 798 798 802 803 803 804 804 806 807 805 807 803 796 799 799 802 809 803 795 794 789 791 792 778 773 780 780 779 785 793 798 801 802 803 804 803 804 804
819 819 819 819 818 818 818 818 817 818 818 818 819 818 820 826 828 829 818 797 797 803 798 800 800 796 800 803 801 799 796 794 790 793 797 798 800 800 801 802 799 805 807 799 799 800 798 799 798 799 800 799 802 804 804 806 806 808 809 808 812 808 801 802 802 801 802 797 795 797 794 792 785 770 768 778 782 782 788 792 795 799 800 800 801 801 803 803
818 818 818 818 818 818 817 817 817 818 818 817 819 817 822 837 834 819 806 797 799 799 796 799 799 799 803 804 802 798 799 798 791 791 796 799 803 801 798 798 797 803 805 799 801 800 798 799 799 801 800 798 800 801 803 805 806 809 808 806 808 811 813 811 804 799 794 792 793 794 795 791 778 765 765 775 783 785 788 791 793 795 798 800 800 802 802 802
817 817 817 816 817 817 816 817 816 817 817 817 818 819 830 839 824 807 802 797 796 798 798 801 801 802 805 804 799 795 800 799 792 796 800 802 809 806 798 799 799 800 804 806 804 801 800 798 797 799 797 798 800 798 799 802 804 804 801 804 805 805 810 807 802 802 798 795 792 792 793 784 773 769 770 775 782 784 786 789 792 794 797 799 799 800 801 800
815 816 816 815 816 815 815 816 815 816 818 816 819 824 832 831 814 805 802 793 793 799 801 801 802 805 806 802 797 794 797 798 794 799 804 803 806 803 795 795 797 799 803 806 800 797 798 792 794 800 798 800 801 798 800 801 803 803 800 805 806 800 800 800 800 802 805 805 796 791 787 773 768 774 774 776 781 782 785 788 791 795 795 796 798 799 800 800
814 815 815 814 814 813 814 814 814 816 816 816 822 825 821 813 803 800 795 789 792 796 800 804 804 807 806 800 798 797 797 800 800 801 803 801 799 795 789 788 793 795 796 799 794 792 794 792 798 804 800 803 805 802 803 801 801 804 803 804 805 803 801 802 804 803 809 813 798 785 782 770 768 777 776 777 779 779 784 786 789 793 793 795 798 799 799 799
814 814 813 812 812 812 812 813 813 816 815 816 822 819 808 799 792 790 788 789 793 792 797 806 804 802 802 797 797 801 802 802 803 803 802 798 793 788 786 787 790 790 789 792 791 789 793 795 800 804 800 803 808 805 804 803 803 805 806 804 803 805 805 806 816 820 821 820 796 779 781 774 768 774 777 778 777 778 782 785 788 791 792 795 797 797 797 797
812 813 812 810 810 809 811 812 813 814 814 817 819 811 802 795 787 785 786 789 792 792 798 806 800 793 795 796 794 798 804 804 804 805 801 794 787 781 783 788 790 791 791 793 793 793 795 796 801 809 807 803 805 805 802 803 805 804 806 805 803 809 809 808 821 826 821 817 794 773 774 771 762 765 774 777 776 778 782 784 787 789 791 794 795 794 795 795
811 812 809 806 807 807 809 811 812 814 814 816 816 807 797 792 785 783 785 786 789 794 799 801 796 791 791 792 791 795 803 802 799 802 798 790 784 778 778 783 789 794 795 794 795 795 796 797 800 811 813 805 804 805 801 801 807 808 808 805 802 805 806 805 813 815 810 810 798 780 773 766 756 756 766 771 773 779 782 783 786 787 789 792 792 793 793 793
809 810 805 802 804 805 807 810 811 813 812 809 806 800 791 788 784 781 782 783 785 790 794 794 795 794 791 789 788 790 797 796 793 794 790 784 780 778 778 779 786 797 800 798 799 797 798 799 798 807 815 808 800 800 796 794 801 807 808 807 805 804 802 804 808 805 804 807 804 795 781 765 757 759 762 767 773 778 781 782 784 786 788 790 790 791 791 791
808 807 802 799 802 803 806 810 809 809 808 803 798 794 788 785 783 781 779 780 781 782 785 788 790 791 789 788 787 786 789 791 790 789 785 781 780 779 777 778 784 794 799 800 800 799 798 798 797 803 810 805 796 796 797 795 796 799 800 797 799 801 803 810 811 803 803 805 799 796 784 764 758 761 762 767 772 775 776 779 782 784 787 788 788 788 789 789
804 802 798 798 801 801 803 805 803 802 801 796 790 787 785 782 781 781 780 780 781 780 781 783 785 786 785 785 785 784 785 787 785 784 782 779 776 776 777 780 785 789 793 798 800 800 800 801 801 797 796 798 799 800 803 803 799 798 797 791 792 795 797 806 807 799 802 802 792 792 787 768 759 760 761 766 770 771 774 776 780 784 785 786 787 786 787 788
799 798 797 798 799 800 802 801 800 798 793 786 783 781 780 779 779 780 779 781 782 783 783 782 781 782 781 779 782 783 783 783 778 777 779 775 774 780 782 783 786 787 789 795 799 801 801 803 805 803 797 799 803 804 803 804 803 800 795 792 792 790 789 793 795 794 800 799 793 798 793 770 760 760 759 764 767 769 772 774 778 783 784 784 785 784 785 785
794 794 797 799 799 800 797 791 791 792 787 784 783 780 777 775 775 776 777 779 779 780 782 780 776 777 776 775 778 778 780 781 774 771 774 772 777 791 791 786 788 789 791 795 795 795 797 800 809 817 813 803 799 801 801 802 804 798 791 791 792 789 790 794 793 798 803 793 789 799 789 766 760 763 761 764 766 766 768 772 777 781 782 783 783 782 783 784
792 793 795 797 798 799 792 782 782 783 782 783 782 778 776 772 769 770 772 773 772 774 777 774 770 772 772 773 776 775 774 776 772 770 771 772 783 798 799 794 793 794 798 801 795 791 794 799 805 813 811 797 786 787 791 794 798 796 791 790 790 790 793 794 797 804 799 783 780 787 777 761 759 762 761 762 763 762 765 770 774 778 780 781 780 781 782 782
788 788 791 796 798 797 790 783 783 779 775 778 777 771 773 772 766 765 768 769 768 768 770 768 767 771 772 773 776 775 771 770 772 773 772 775 790 804 804 801 801 801 802 802 796 794 803 808 804 801 797 786 778 779 784 788 791 793 791 789 789 789 789 792 799 797 786 780 777 771 766 762 759 758 759 759 760 761 765 770 775 777 778 778 779 780 780 780
781 776 778 787 792 793 791 787 784 777 770 772 769 763 764 766 764 765 766 765 764 765 766 765 765 770 772 773 775 772 768 769 773 773 771 779 798 810 807 804 805 803 801 802 799 799 809 811 802 798 793 782 778 782 785 786 787 787 789 788 787 787 788 792 793 781 777 784 775 760 761 765 759 757 760 759 760 763 766 772 775 776 776 777 778 779 778 779
772 764 762 768 772 777 782 780 778 777 771 768 764 759 758 759 760 762 762 762 761 760 763 763 761 765 766 767 769 768 766 771 774 771 770 779 796 807 808 807 808 805 804 806 804 803 811 808 797 797 795 785 784 786 785 786 785 783 786 786 783 783 784 787 785 778 779 781 767 756 761 762 756 758 759 758 761 765 768 772 773 773 774 775 776 777 777 778
765 761 757 758 757 758 763 766 771 774 770 765 762 756 755 758 757 755 756 761 761 756 758 760 757 758 759 759 764 765 762 767 770 765 766 775 785 797 803 802 805 808 807 808 808 809 812 806 797 797 797 790 789 788 784 786 786 783 784 783 780 779 778 777 777 778 780 774 762 760 762 756 753 757 756 756 761 764 767 770 770 771 773 774 775 777 777 777
756 754 753 756 754 751 754 759 764 767 764 763 758 751 753 756 752 750 750 753 756 755 756 755 750 750 753 755 757 755 751 756 759 756 760 770 778 790 794 789 795 808 810 809 810 811 810 805 800 803 804 796 791 791 789 788 787 785 783 781 780 778 774 772 771 773 777 773 764 765 765 756 750 753 755 757 760 763 766 768 768 771 773 774 776 776 776 776
746 745 746 752 752 748 749 751 757 762 759 755 750 748 750 748 743 747 747 740 741 746 748 746 743 745 750 751 750 746 742 746 749 749 753 758 761 769 774 775 784 800 808 810 809 808 809 808 805 809 809 797 791 796 795 791 794 792 784 780 781 777 769 764 763 764 768 767 764 767 767 756 749 751 755 756 758 761 764 766 768 771 772 774 776 776 775 775
742 742 741 744 745 742 742 744 750 753 743 736 739 741 739 736 737 744 746 737 732 733 733 734 738 745 747 744 740 737 738 745 752 756 759 758 756 758 764 769 773 783 797 805 806 805 806 807 807 809 807 799 799 802 800 803 805 788 767 765 770 767 761 759 757 755 754 755 759 762 756 748 748 752 754 755 757 760 763 766 769 771 772 774 775 776 777 776
Wind_Speed
23 24 25 26 27 28 28 29 29 29 30 30 30 30 31 31 31 30 26 23 24 26 25 18 12 5 8 11 11 12 12 11 12 15 11 7 8 8 7 8 10 10 9 7 9 10 5 6 5 6 3 4 1 1 2 0 1 1 1 2 4 1 2 3 4 5 4 4 6 6 7 5 4 4 3 3 3 2 8 9 10 14 15 14 17 20 22 22
22 24 25 26 27 28 28 29 28 29 30 30 30 30 30 30 30 30 26 23 25 27 24 17 12 6 8 12 11 10 8 5 9 14 10 9 11 10 8 9 10 10 8 6 7 9 5 4 5 7 5 2 2 2 2 1 1 2 1 2 2 3 1 4 5 5 5 5 6 7 7 5 5 4 4 3 4 6 9 8 9 11 12 14 18 20 21 22
22 23 25 26 27 27 27 28 28 29 29 29 29 29 30 30 29 30 27 24 26 29 23 14 11 6 6 12 10 6 3 4 2 8 7 11 12 11 10 10 10 9 8 5 5 6 4 4 7 6 4 2 2 2 1 1 1 0 1 1 1 2 1 2 5 5 5 7 6 6 5 4 5 4 3 1 7 9 8 7 8 9 10 10 12 16 19 20
22 23 24 26 26 27 27 28 28 28 29 28 28 28 28 29 29 29 28 26 28 29 21 11 9 6 4 11 12 6 1 3 1 4 7 13 13 12 10 9 10 9 8 7 7 7 6 7 8 5 2 3 2 3 2 2 1 1 0 1 2 2 2 1 3 5 5 6 4 5 4 4 4 2 2 2 6 7 7 7 8 9 9 9 9 12 17 18
21 22 24 25 26 27 27 27 27 27 28 28 27 27 28 29 29 29 28 27 28 27 18 8 7 5 2 8 11 6 1 1 1 5 11 14 12 11 9 10 11 9 9 9 9 10 9 9 7 4 2 3 2 2 3 3 1 1 1 2 5 3 3 1 3 4 5 4 4 5 3 3 3 2 6 7 7 5 6 8 9 8 8 9 9 11 14 15
20 22 23 24 26 26 27 27 27 27 27 27 26 27 27 28 29 29 28 27 27 26 16 6 5 4 4 6 10 5 1 0 3 9 14 13 10 9 9 10 12 10 10 11 10 9 7 6 5 1 1 3 1 1 3 4 2 2 2 4 5 2 2 1 3 3 5 2 4 3 3 2 1 6 7 8 9 7 8 8 8 8 9 11 11 11 11 12
20 21 23 24 25 26 26 27 27 26 26 26 26 26 27 28 29 29 28 27 26 24 15 5 2 3 5 6 7 4 1 2 5 12 13 10 8 9 11 12 12 11 10 10 10 8 6 6 5 4 3 3 0 1 2 2 3 3 2 4 4 1 4 3 4 2 3 1 3 3 2 4 4 7 6 9 10 9 9 8 8 10 11 12 11 10 10 11
19 21 22 23 24 25 26 26 26 26 25 25 25 25 26 27 29 29 28 26 25 22 15 6 2 4 3 2 1 2 3 3 7 12 11 8 7 10 12 12 12 11 9 7 9 8 6 5 5 4 3 1 2 1 2 2 4 5 2 3 3 2 3 4 5 3 1 2 2 5 4 4 6 8 8 9 10 9 9 7 8 9 10 10 9 9 9 10
19 20 22 22 24 25 25 26 26 26 25 25 24 24 25 26 28 28 27 25 24 21 14 8 3 7 6 3 2 1 2 3 7 11 11 9 8 10 13 12 11 11 9 7 9 10 6 4 5 4 3 3 2 3 3 3 2 3 1 1 2 3 4 4 5 3 2 1 3 6 3 5 9 10 8 8 10 8 8 7 7 7 8 9 8 9 9 8
18 20 21 22 24 24 25 26 26 26 25 24 23 23 24 25 27 27 26 24 23 20 13 7 3 6 7 4 3 2 2 4 7 11 11 10 8 9 11 12 12 11 10 8 7 9 6 4 6 4 3 3 2 3 1 1 1 1 2 4 4 6 4 3 5 3 4 0 3 4 5 3 9 6 5 8 9 8 8 7 6 7 7 9 8 7 8 8
18 19 20 22 23 24 25 26 26 26 25 24 23 23 23 24 26 26 25 23 21 21 13 5 2 2 5 5 3 1 2 4 8 10 11 11 9 8 10 12 12 10 10 8 5 7 5 6 8 4 1 1 2 4 4 1 1 2 3 6 6 7 4 4 5 3 4 1 4 5 6 2 6 3 6 11 9 9 9 7 6 6 7 8 8 7 7 8
17 18 19 21 22 23 25 25 26 25 25 24 23 23 22 23 24 24 24 21 20 20 13 5 3 4 5 3 1 2 2 4 8 11 11 12 9 8 9 10 11 8 7 6 5 6 5 6 7 3 2 2 4 3 2 3 2 4 4 4 4 6 5 6 6 4 5 1 4 5 5 3 7 6 12 12 9 9 9 7 6 6 6 7 7 5 5 7
17 17 19 21 22 23 24 25 26 25 25 24 23 24 22 23 23 22 22 19 19 19 13 6 4 5 5 0 1 1 3 5 9 12 11 12 9 8 9 9 11 9 6 4 5 6 5 5 3 4 4 4 3 1 1 2 2 4 3 2 2 4 5 7 7 5 6 2 2 3 3 4 6 11 13 11 10 10 8 6 5 5 6 6 5 5 4 7
17 17 18 20 21 23 24 25 25 25 25 24 24 24 23 23 21 21 20 16 18 17 11 5 4 6 3 1 0 0 3 5 8 11 11 11 10 7 6 8 11 10 7 4 5 6 4 4 3 4 4 3 3 2 2 1 1 3 1 1 3 3 3 8 7 6 6 2 3 2 2 3 5 12 11 9 9 9 8 6 5 6 6 5 5 5 4 5
16 16 18 19 21 22 23 24 25 25 25 24 25 24 24 23 20 20 17 14 18 13 7 3 3 4 2 1 1 1 3 4 5 10 12 13 11 5 3 7 10 9 7 5 5 4 3 2 2 3 2 3 2 3 4 3 2 2 0 2 3 1 2 6 5 5 4 1 5 4 3 1 6 10 9 9 8 9 9 6 6 6 6 5 4 4 3 4
15 16 16 19 20 21 23 24 25 25 25 25 25 25 25 22 20 18 12 14 15 7 3 2 1 3 1 1 1 2 2 2 3 9 11 12 11 6 7 9 8 6 5 5 5 4 2 2 1 1 1 1 3 3 4 2 2 3 1 2 3 3 2 3 2 4 3 1 4 4 3 2 4 8 8 9 8 9 9 6 7 5 5 5 3 3 3 4
15 15 15 18 19 20 22 23 24 25 25 25 25 26 23 17 18 13 8 15 12 2 2 3 4 4 1 1 1 2 2 1 5 8 9 12 11 8 8 6 4 4 4 5 5 4 2 3 2 1 1 3 3 1 4 4 2 2 1 2 4 4 4 2 3 4 4 3 3 1 4 5 4 9 7 8 8 9 9 7 7 5 4 5 3 3 4 5
14 14 15 16 18 19 21 22 24 25 24 24 25 25 16 13 16 6 8 19 9 2 1 2 4 3 1 1 1 1 3 3 6 5 7 10 11 9 6 4 4 5 4 4 4 3 3 3 2 1 1 2 1 4 3 3 3 3 4 4 5 5 5 6 4 2 3 3 2 4 6 6 5 10 7 8 8 8 8 6 6 5 5 4 4 4 4 5
13 14 14 15 17 18 20 21 23 24 24 24 25 20 10 11 10 3 9 21 6 2 2 1 2 3 2 0 0 4 5 4 4 3 6 10 11 9 5 5 2 2 4 2 2 3 1 1 1 2 2 1 4 4 1 3 4 4 5 4 5 5 5 9 5 2 2 1 3 5 6 7 5 9 8 7 7 7 8 6 5 4 4 4 4 4 5 4
12 13 14 14 16 17 19 20 22 22 22 23 24 15 6 9 5 2 10 14 1 1 3 3 2 4 3 0 2 7 5 3 2 0 5 12 12 7 3 5 3 1 2 2 4 2 2 3 3 1 2 4 4 2 2 4 3 4 4 4 6 6 6 8 4 3 3 1 3 5 7 11 8 7 10 8 7 8 7 6 5 4 4 4 4 4 4 1
11 13 13 14 15 16 17 19 21 20 19 20 20 10 3 5 3 2 7 5 2 2 2 3 3 4 4 1 3 6 3 3 1 0 7 12 8 3 2 1 2 1 3 5 5 0 3 2 2 3 2 2 2 1 2 3 4 4 5 5 6 6 5 5 3 3 4 2 2 6 9 13 10 5 11 9 8 7 7 7 6 5 5 4 5 4 2 1
11 12 13 13 14 15 16 18 19 17 17 18 16 8 4 3 0 2 2 5 3 2 2 1 1 3 2 1 3 3 2 3 1 1 8 10 4 1 4 4 4 4 7 8 4 1 2 2 1 2 1 1 0 2 3 4 5 5 5 5 6 4 3 4 1 2 3 2 4 8 8 10 8 5 11 9 7 6 6 6 5 5 5 4 4 3 2 3
10 11 13 12 13 14 15 17 15 15 16 15 13 7 2 1 2 3 2 5 5 2 3 2 2 3 3 2 2 2 2 3 1 1 7 9 2 1 2 3 4 6 7 5 3 3 4 2 2 1 1 1 2 3 4 5 5 5 5 5 5 1 3 2 2 5 7 6 7 8 6 7 4 6 9 7 6 6 6 6 5 5 5 4 3 3 3 4
9 10 12 12 13 12 14 14 10 12 13 11 10 7 2 2 3 2 1 3 4 1 1 1 2 1 2 2 1 1 2 2 0 1 5 6 2 0 0 2 4 5 3 4 4 4 7 3 1 1 2 1 3 4 4 3 3 4 4 3 3 1 1 3 4 7 8 7 6 5 6 6 5 9 7 6 7 6 7 7 6 5 5 4 3 4 4 4
9 10 11 12 12 11 13 11 7 12 9 6 7 6 3 2 4 3 1 2 3 2 1 1 2 1 1 3 1 1 1 1 1 2 4 3 1 1 1 1 1 4 3 4 4 6 6 3 1 1 1 1 2 4 3 2 2 4 1 1 1 0 3 5 6 6 5 4 2 2 5 5 6 10 7 6 6 7 7 8 7 6 5 3 3 5 5 5
9 9 11 11 11 12 10 5 6 11 5 2 5 6 3 1 4 2 1 1 3 1 1 1 2 2 2 3 2 0 1 1 1 2 2 2 1 0 1 1 2 2 3 2 3 4 3 2 1 0 1 1 3 5 2 2 0 3 2 1 1 2 5 6 6 4 2 5 3 2 3 5 2 7 8 8 7 8 7 6 7 6 4 4 4 4 4 4
9 8 10 10 10 11 6 1 5 7 1 1 6 6 3 2 4 1 2 1 3 2 1 2 1 2 2 1 1 0 1 2 2 1 2 1 1 2 1 2 1 2 0 1 2 3 3 3 2 2 2 2 4 4 1 2 1 2 4 2 1 3 6 7 6 4 4 6 5 4 5 6 6 5 10 12 9 8 8 6 6 5 4 5 4 4 3 3
9 7 8 9 9 8 4 2 5 3 1 5 6 6 3 4 3 0 2 2 3 2 2 1 1 2 2 1 2 2 1 2 1 1 2 1 1 2 1 4 4 4 1 2 3 3 3 4 4 3 3 3 3 3 2 2 1 2 2 3 3 5 8 7 6 6 5 5 5 5 5 5 6 2 7 10 10 9 9 8 7 5 5 4 4 3 3 4
9 7 8 8 6 5 3 3 2 1 4 6 5 3 3 5 0 1 2 2 2 1 1 1 1 2 2 1 3 4 2 2 1 0 2 1 1 2 2 2 2 6 4 5 7 4 1 2 2 3 3 4 2 3 3 2 2 1 2 4 5 6 8 7 6 5 4 5 7 6 6 5 5 2 6 7 7 9 9 7 6 6 5 4 3 2 3 3
7 6 7 7 5 3 3 2 1 2 5 5 3 3 5 2 1 1 1 3 1 1 1 1 0 1 3 3 4 4 3 3 2 2 2 0 0 1 1 1 2 4 5 5 7 6 1 2 2 2 3 2 3 3 3 3 2 2 4 4 5 6 7 5 6 4 3 5 5 5 4 5 4 3 6 5 4 7 8 7 6 5 4 3 2 1 3 4
7 7 7 7 4 2 1 1 3 3 4 2 2 4 2 1 0 1 3 2 1 0 2 2 0 1 3 3 2 3 3 3 3 3 2 1 1 2 1 1 1 2 4 4 6 4 2 2 1 1 1 3 4 0 3 4 1 2 1 4 4 5 4 3 1 1 1 5 2 4 5 2 5 3 3 4 4 8 8 7 7 5 3 2 2 2 4 5
9 8 7 7 4 2 2 4 5 5 4 1 3 2 1 1 2 4 3 0 1 2 2 1 1 2 2 1 1 3 1 2 4 4 2 2 2 3 3 3 1 2 4 3 2 3 3 4 2 2 2 2 4 1 1 1 1 2 2 3 3 4 3 2 1 1 3 5 3 5 6 2 7 6 4 8 7 8 8 7 7 5 3 3 4 5 5 5
11 8 7 7 4 4 6 6 7 7 2 2 2 2 0 1 4 4 4 1 1 1 1 1 1 2 2 1 3 2 1 2 5 3 1 2 2 4 5 5 3 1 4 1 3 3 3 2 2 3 2 2 4 2 1 1 1 4 3 1 3 1 3 4 3 2 4 4 4 4 3 4 6 6 4 10 9 8 9 7 7 6 5 4 3 3 4 5
11 8 8 9 7 7 8 8 8 6 1 3 1 2 3 4 4 2 4 4 1 1 2 2 2 2 1 2 3 3 1 5 5 2 1 3 2 3 4 4 3 3 2 2 3 3 3 4 1 3 1 3 4 3 3 2 1 4 3 4 3 2 3 5 2 2 4 5 5 1 2 4 4 2 4 11 9 8 8 7 7 6 5 3 2 3 5 5
11 9 9 10 10 10 9 9 8 5 4 2 2 3 5 6 3 3 5 2 1 2 2 2 2 1 3 4 3 3 2 4 3 3 2 4 4 4 4 4 6 5 3 1 2 2 4 5 2 1 2 2 1 0 3 2 0 2 2 3 1 3 4 4 1 3 2 6 6 2 2 5 2 2 6 10 8 8 8 6 7 4 3 4 4 4 5 5
10 8 9 10 11 11 8 9 8 6 5 2 3 5 6 6 4 3 3 1 1 3 3 1 2 2 5 4 4 3 0 1 1 2 2 5 6 7 5 3 6 8 6 3 1 1 3 4 1 1 1 2 1 2 1 0 1 0 1 1 3 2 2 1 3 0 2 5 6 2 3 4 2 2 5 8 8 8 7 6 6 4 4 5 3 2 3 4
8 6 6 8 11 10 8 8 8 7 4 2 5 7 6 6 6 5 2 2 1 1 3 2 3 4 4 2 4 5 1 1 1 1 2 3 4 6 6 2 3 8 7 3 1 1 1 3 2 1 1 0 1 2 2 1 2 2 2 2 1 1 2 1 2 2 1 6 6 4 5 6 3 3 4 8 7 6 6 6 5 4 4 2 0 2 4 5
6 4 5 8 12 12 10 8 8 7 2 3 7 9 7 7 8 6 3 4 0 1 3 4 4 4 4 3 3 4 4 1 3 4 3 2 3 4 7 3 1 3 1 4 1 1 1 2 3 0 1 1 1 2 1 1 2 2 2 1 2 1 1 2 1 1 3 7 6 4 7 6 5 4 6 8 7 5 4 4 4 3 3 1 2 4 5 5
6 1 3 9 14 14 12 10 8 4 2 5 8 8 6 8 10 6 4 4 2 3 4 5 4 4 5 5 3 2 5 5 5 4 3 3 4 4 7 5 2 1 3 5 3 1 2 2 3 1 2 0 1 1 2 2 1 2 1 2 1 2 3 3 2 2 4 6 7 8 8 4 4 4 8 8 6 6 3 3 3 2 2 2 3 4 5 5
7 1 2 11 14 15 14 11 6 3 4 6 7 7 6 7 8 8 8 6 3 4 4 4 5 5 6 6 5 3 5 6 6 4 3 4 4 3 6 6 5 4 4 5 1 1 2 3 4 1 2 1 2 3 5 4 4 3 2 3 2 2 2 2 2 2 4 6 5 8 9 4 2 1 6 7 6 7 5 2 2 2 3 3 3 4 5 5
5 2 3 10 13 14 15 8 4 5 5 6 7 9 8 6 6 7 8 8 6 5 4 5 6 6 6 6 6 4 4 5 5 5 4 4 4 4 4 5 8 7 4 4 1 2 2 3 4 2 2 3 3 2 2 3 4 4 5 6 6 5 4 2 5 3 3 5 5 6 11 6 3 1 4 6 6 6 5 3 3 3 4 3 3 4 5 5
4 3 4 10 16 17 13 5 4 5 5 7 8 9 8 6 7 7 6 7 7 5 5 7 8 7 8 7 6 4 3 4 6 5 4 5 7 6 3 4 9 9 5 3 1 2 1 1 2 4 3 3 2 1 1 1 2 3 4 4 5 5 5 5 7 4 2 4 4 5 10 6 2 4 5 6 6 5 4 4 4 4 4 2 3 4 5 5
4 3 4 10 17 16 8 5 5 6 7 7 8 10 9 7 7 7 7 6 5 4 4 6 7 9 10 8 6 6 5 5 9 8 5 6 6 4 2 5 9 7 4 2 1 1 1 2 1 4 4 2 2 2 1 0 0 2 5 4 4 5 6 5 6 2 1 5 5 3 8 7 1 3 5 6 6 6 5 5 6 4 2 2 3 4 5 6
3 3 2 8 15 13 7 7 8 8 8 8 9 11 11 10 9 9 9 9 7 5 5 7 8 9 8 6 7 9 7 6 8 8 7 6 4 3 5 3 8 5 2 1 2 3 2 2 2 2 5 4 3 2 2 2 2 3 4 4 5 5 3 2 2 1 3 10 9 6 9 7 2 3 5 7 7 5 4 6 6 4 2 2 3 4 5 7
4 3 2 7 13 10 6 5 6 7 9 10 12 14 13 10 9 11 12 11 9 8 7 7 7 8 6 6 7 9 10 9 7 4 4 4 2 3 6 5 4 3 2 2 1 3 3 2 4 3 7 9 6 4 3 3 3 3 3 6 7 8 8 5 2 3 8 12 10 9 10 8 4 6 6 5 5 3 2 5 5 4 2 2 4 4 5 7
5 4 2 5 6 7 5 2 3 6 9 10 11 13 15 13 10 11 13 11 9 11 11 7 4 6 5 6 8 10 11 11 8 4 3 2 1 2 3 5 5 3 3 4 4 2 2 1 6 9 11 12 9 5 2 3 4 4 4 9 10 10 13 9 4 7 9 7 9 11 10 11 11 8 6 5 4 5 2 4 4 3 2 3 3 4 6 8
5 5 5 5 3 5 5 4 6 8 9 10 8 8 13 15 11 9 11 12 10 12 13 10 7 6 6 7 9 12 12 10 8 9 8 4 2 1 3 4 4 2 3 3 4 3 3 3 9 13 17 17 11 6 3 4 6 7 6 8 11 12 12 12 12 13 6 3 12 13 9 12 14 9 7 6 4 4 2 4 3 1 2 3 3 5 8 9
6 4 6 8 5 6 7 8 10 11 12 12 9 10 14 15 12 9 10 10 11 12 9 9 12 13 12 12 10 10 10 7 7 12 11 4 4 2 2 3 1 1 3 2 2 3 3 6 8 10 16 17 13 10 7 6 7 9 8 9 11 13 14 16 18 16 9 9 16 14 10 15 13 8 8 7 3 2 2 4 1 1 2 3 4 7 9 9
6 3 3 8 7 7 10 13 14 15 18 15 12 14 15 14 14 11 7 5 8 11 10 10 13 15 16 16 11 10 12 8 8 12 9 5 4 5 1 2 2 1 2 2 0 2 2 4 5 8 13 15 12 11 10 9 9 11 10 11 12 15 17 17 18 16 15 18 20 17 18 20 14 9 11 9 3 2 4 4 1 2 4 5 6 7 8 9
7 3 4 6 7 8 7 11 14 13 15 15 15 14 13 15 19 14 7 8 9 7 8 15 19 15 16 17 15 17 18 13 14 14 8 8 5 5 4 4 5 4 2 4 2 2 3 2 2 4 8 11 10 9 10 10 11 14 14 13 14 16 18 18 17 15 14 19 22 19 20 20 13 9 9 7 2 4 4 3 2 2 3 4 6 7 8 9
12 10 11 5 6 10 7 8 11 10 11 14 14 12 13 18 22 15 10 14 15 10 11 19 23 15 12 16 19 22 22 17 16 14 10 11 9 8 7 6 9 9 5 5 4 3 5 2 2 3 5 7 5 7 8 7 9 16 19 18 17 17 18 17 15 14 15 18 20 17 15 15 10 6 5 4 4 4 4 3 1 1 1 3 6 7 8 8
14 10 14 7 5 10 9 7 9 9 11 12 13 15 18 19 19 15 11 12 16 18 18 19 17 11 10 18 21 20 16 10 5 3 3 4 3 5 6 7 12 12 9 8 5 3 5 4 1 3 4 3 2 3 2 2 6 13 15 16 19 21 20 17 14 16 18 17 14 12 12 12 7 4 5 5 3 3 3 3 2 0 2 3 4 5 6 8
Wind_Direction
14 12 11 12 12 12 12 11 11 11 11 10 9 10 11 11 12 12 13 13 8 3 2 4 11 45 139 137 124 117 102 92 72 61 60 27 359 358 353 352 353 358 6 10 1 348 305 249 266 318 282 196 218 150 171 259 15 296 260 265 284 352 60 329 340 16 357 355 360 6 37 38 30 39 10 314 236 128 67 48 49 70 66 53 46 40 42 41
11 10 9 9 9 10 9 9 9 9 9 8 8 8 8 9 9 10 10 8 4 359 360 2 7 34 150 149 136 135 128 125 80 64 45 8 359 349 342 344 347 353 3 15 9 358 350 346 334 325 301 229 169 161 195 165 162 258 316 295 305 32 10 330 356 353 351 1 352 1 15 13 41 41 339 19 94 69 55 37 40 63 60 55 46 40 42 41
7 7 7 7 7 7 7 7 7 8 8 7 7 7 7 6 6 7 7 6 1 357 358 2 4 18 166 170 162 158 168 228 77 58 17 352 348 341 336 336 347 352 356 360 345 333 320 313 298 297 309 282 182 146 208 183 168 304 17 306 305 34 347 351 352 338 359 6 1 354 338 349 44 44 302 57 88 60 49 39 40 51 49 55 48 41 42 41
4 5 4 4 5 5 4 4 5 6 6 6 5 5 5 5 4 4 5 6 2 356 357 6 2 5 175 188 193 197 253 265 3 37 344 338 339 343 342 344 360 358 354 342 314 299 278 271 270 270 302 280 184 144 173 166 52 23 357 197 130 354 289 142 329 326 14 17 356 309 307 360 14 37 334 16 94 64 49 51 51 55 51 52 49 43 41 40
2 2 2 2 3 3 2 2 2 4 5 5 4 4 4 3 2 1 4 6 4 359 357 14 15 22 137 190 194 192 327 269 39 360 335 337 342 352 358 4 9 4 360 338 309 293 276 273 268 237 227 259 208 159 147 122 54 284 238 112 93 7 302 136 313 328 38 22 312 303 350 2 313 74 49 49 86 74 63 67 61 63 61 61 56 48 42 39
360 360 360 360 1 1 0 360 1 2 3 4 3 3 2 1 360 359 2 3 5 1 358 21 42 63 108 158 170 175 347 159 11 347 336 342 356 7 16 16 12 12 1 336 322 314 304 299 288 282 276 267 273 102 123 133 140 254 226 106 84 21 307 322 302 337 66 25 297 338 23 331 146 94 71 70 83 79 78 76 70 67 65 69 64 54 47 40
359 358 358 358 358 359 359 358 359 0 1 2 2 2 0 359 357 357 359 2 5 3 359 9 79 105 110 128 155 187 106 79 2 345 340 349 11 23 25 17 12 15 2 347 350 346 343 322 311 357 312 257 254 64 94 137 173 214 230 134 112 328 290 296 294 319 80 184 290 329 304 254 159 111 90 86 87 85 81 75 78 75 66 67 64 59 54 45
357 357 356 356 356 357 357 357 358 358 359 1 1 1 358 358 355 353 356 360 3 2 357 346 208 171 157 141 191 206 102 41 343 344 350 3 22 30 24 15 9 8 358 357 4 347 338 334 347 7 294 298 39 297 9 360 216 205 217 145 148 219 241 267 276 282 225 194 324 320 271 203 140 108 99 99 96 93 90 86 86 83 74 68 62 61 58 49
355 355 354 354 354 354 355 355 356 356 357 358 358 358 356 355 353 349 352 357 1 1 353 339 258 220 242 269 277 252 97 3 347 354 1 7 19 28 22 15 10 6 355 356 7 349 335 353 6 16 323 344 360 306 20 33 224 211 314 207 232 245 209 232 261 239 188 153 10 332 320 125 122 105 100 109 105 102 101 98 92 91 86 74 64 59 56 54
353 353 351 352 351 352 353 353 354 355 356 355 355 355 352 351 349 345 347 354 359 359 351 346 315 231 247 273 280 265 79 37 4 360 3 6 11 21 22 17 11 11 359 349 16 5 349 353 348 6 360 310 274 284 276 110 193 229 287 279 271 268 226 199 250 214 147 34 3 336 327 133 149 137 118 122 118 118 109 101 96 91 88 80 73 61 53 56
351 351 349 349 349 350 351 351 352 353 353 353 351 351 350 347 345 341 342 350 357 355 348 345 4 289 261 274 298 274 75 40 6 4 8 6 10 15 20 18 10 14 4 350 29 21 348 343 340 335 35 338 293 243 211 130 350 261 292 295 259 236 209 178 230 214 149 264 351 325 307 201 175 167 136 137 129 124 113 105 103 92 88 84 80 73 55 53
348 349 348 346 347 348 349 349 350 351 351 350 348 348 347 342 339 336 337 346 353 351 346 323 299 326 301 275 33 83 69 22 9 16 10 2 11 14 9 9 7 11 2 350 13 11 337 343 345 298 286 338 313 266 194 56 329 287 305 293 224 187 179 189 208 197 180 208 358 326 307 209 187 145 131 137 131 123 117 112 110 95 88 81 79 82 64 49
346 347 346 345 345 346 347 347 347 348 348 348 346 346 344 338 334 331 333 343 350 347 342 324 262 294 315 232 91 76 44 17 17 18 8 1 4 357 350 352 1 357 341 330 329 336 327 345 334 272 310 320 302 301 317 1 303 272 262 236 175 166 191 198 195 187 193 184 39 355 331 234 183 132 128 135 130 124 118 113 107 91 83 79 71 66 56 48
344 345 344 344 344 344 345 345 346 346 346 346 344 343 342 336 328 325 330 340 347 343 337 330 240 272 313 111 268 184 36 32 25 10 3 8 5 356 358 351 348 335 321 312 304 313 317 341 318 271 294 253 264 358 272 249 244 248 233 228 213 216 196 181 180 176 185 176 142 146 278 252 128 122 132 133 128 122 113 105 98 90 84 81 70 53 35 41
343 343 343 342 342 342 344 344 344 344 344 345 343 341 339 332 322 320 329 346 347 343 339 332 221 286 329 142 248 210 32 42 26 2 2 9 8 1 337 326 326 319 314 302 286 310 322 329 296 271 270 212 242 318 272 202 205 231 223 295 251 266 180 170 173 173 178 195 166 174 267 261 111 129 137 128 129 120 116 116 107 99 91 82 67 58 28 29
342 343 341 341 340 341 342 342 342 342 343 344 343 342 339 329 320 317 332 356 350 346 340 333 318 325 303 169 198 176 40 49 344 354 360 360 3 352 322 318 313 300 294 281 273 293 294 258 241 272 333 215 216 256 283 286 240 225 183 307 320 337 296 192 204 190 179 256 199 185 247 268 137 145 135 131 139 125 123 126 116 109 98 92 69 63 35 27
341 342 341 339 339 339 341 341 341 341 342 344 345 345 341 330 324 321 355 0 353 38 25 344 341 319 212 94 131 169 36 345 307 341 358 353 354 349 334 319 306 302 272 246 261 273 211 198 200 106 167 229 249 301 342 338 313 292 3 344 305 303 313 288 238 202 176 188 235 250 257 268 163 151 150 145 143 130 130 128 125 120 105 106 87 68 37 32
339 341 341 338 337 338 340 340 340 342 342 343 346 343 339 336 330 320 23 1 349 150 50 360 344 309 200 54 71 28 351 299 295 336 1 349 344 342 330 286 298 329 293 235 235 221 176 188 189 354 286 211 357 32 23 329 337 314 312 328 302 306 313 292 275 210 194 182 257 290 268 264 166 151 161 153 146 134 130 126 127 121 112 110 88 72 43 40
337 340 341 338 337 336 338 340 340 343 343 343 348 346 343 351 339 188 19 1 347 204 316 360 350 281 259 156 165 340 318 281 301 351 3 349 340 329 290 252 256 330 298 256 246 228 172 341 239 278 316 86 46 32 350 310 334 303 295 304 289 296 283 276 281 184 212 275 277 281 274 267 204 162 164 156 143 130 127 129 130 126 120 101 80 70 44 42
335 338 339 339 337 335 339 340 339 345 347 349 356 358 357 2 358 179 356 352 9 77 327 296 297 258 270 289 324 329 303 256 285 260 2 351 336 323 264 228 204 191 276 321 310 300 66 341 287 308 40 60 44 12 312 298 293 281 281 265 258 267 263 274 291 134 116 22 287 296 288 274 261 179 163 155 138 135 139 142 137 129 119 99 92 80 48 50
332 335 337 340 337 336 340 340 340 347 351 360 12 20 31 16 356 306 338 318 180 78 314 299 336 268 272 305 319 334 297 226 237 130 4 352 327 328 26 292 304 316 321 318 297 58 74 299 292 52 54 43 43 309 275 266 260 263 256 256 258 255 264 294 324 118 106 75 268 279 270 266 270 183 155 154 150 152 150 143 136 128 123 107 102 98 55 43
328 332 335 337 337 337 339 340 342 345 353 12 33 52 78 62 246 218 321 296 269 155 194 262 334 248 233 233 283 327 281 234 177 77 5 357 323 327 5 343 347 334 312 303 293 24 357 261 148 77 72 26 159 210 234 241 249 259 248 253 257 255 301 320 360 78 19 357 272 270 264 269 276 168 153 160 153 142 130 125 123 121 116 100 95 102 48 21
322 330 331 333 337 337 338 341 343 350 3 25 48 60 65 113 191 175 168 293 292 180 174 216 247 216 165 180 261 299 275 257 169 98 4 359 347 96 2 337 341 320 306 316 9 360 297 256 137 127 91 43 270 223 230 243 244 245 248 257 261 324 32 293 307 352 325 297 271 276 272 271 270 146 150 151 130 121 118 117 119 118 111 114 124 103 64 22
315 328 327 329 333 335 339 339 347 4 12 34 52 57 69 186 173 131 159 270 278 199 137 211 268 269 165 169 243 255 264 289 113 66 11 2 348 47 74 4 335 299 311 22 9 291 265 276 22 169 135 86 289 272 254 254 262 263 273 275 259 14 23 264 295 317 304 284 270 291 288 257 178 157 161 133 126 137 142 143 140 135 132 147 144 90 64 33
309 326 326 326 326 332 337 337 2 10 11 40 33 32 49 171 156 103 40 265 261 289 360 217 216 261 166 160 181 304 278 298 71 60 26 23 15 339 340 70 263 272 324 8 321 280 262 267 338 219 209 200 261 272 255 187 258 279 278 108 131 286 293 283 292 306 308 282 253 28 316 277 160 164 168 140 155 164 160 161 150 143 148 138 96 68 46 23
306 325 330 326 323 327 332 338 5 359 12 68 350 345 5 156 160 110 36 263 253 272 11 234 201 195 166 168 197 312 294 235 94 77 63 68 151 217 331 269 194 261 325 346 301 276 237 180 120 181 241 277 268 265 260 113 99 274 217 146 35 277 269 269 277 298 278 256 263 60 296 277 200 180 174 164 175 172 166 161 142 149 149 106 83 70 45 1
303 324 335 331 330 332 337 343 346 352 24 293 322 329 345 143 161 155 48 332 256 170 124 295 302 186 164 115 198 204 282 180 121 120 146 121 194 154 269 277 252 243 181 35 303 256 180 141 140 211 210 252 265 257 256 90 82 243 207 194 282 261 258 259 259 249 238 265 275 225 227 258 267 223 174 166 170 173 174 160 147 153 124 94 85 73 38 325
297 322 340 338 339 341 352 326 334 2 258 284 308 324 3 116 152 320 45 320 258 136 140 243 26 165 174 360 255 253 289 164 162 259 151 175 235 119 236 263 277 279 173 143 259 253 148 157 191 204 203 227 231 202 182 116 132 212 203 224 247 247 250 251 249 245 251 278 273 225 208 253 268 213 147 160 170 182 179 162 156 141 107 98 88 60 354 309
290 318 342 342 341 346 9 345 323 278 273 301 318 333 75 108 224 15 65 294 237 116 55 151 101 174 168 332 238 231 243 189 175 67 148 209 255 117 237 263 306 287 252 199 231 256 144 161 179 154 182 220 189 156 160 155 189 251 330 283 257 247 248 246 239 245 258 263 266 247 208 231 265 159 148 173 185 189 178 154 144 131 114 103 82 45 315 306
287 315 335 345 344 329 360 351 272 277 297 315 354 70 89 102 301 59 192 264 259 55 52 111 359 155 176 232 224 193 214 209 117 121 189 257 57 171 223 49 36 286 271 242 249 255 165 66 26 158 203 188 132 139 164 189 240 357 343 291 274 260 247 234 221 228 270 253 263 276 224 223 260 199 166 186 182 161 157 143 130 121 109 99 83 354 321 336
286 307 318 336 334 300 357 225 234 291 309 325 77 97 79 338 218 183 231 249 15 78 134 142 324 164 199 243 225 178 215 220 145 153 223 120 141 215 248 353 48 327 297 270 269 269 185 184 225 213 281 96 101 107 199 197 247 46 337 293 315 297 254 242 243 119 243 245 247 14 9 286 243 232 151 158 129 120 134 137 129 117 97 95 47 6 1 352
282 292 301 320 323 265 242 222 249 292 304 30 97 134 322 304 207 222 232 13 24 214 177 145 197 196 183 31 272 222 216 226 176 169 192 142 187 219 210 210 180 340 281 247 299 307 229 223 163 73 342 131 123 39 218 230 274 180 243 297 317 319 303 277 314 149 234 245 181 96 43 318 241 248 189 158 131 113 123 122 119 111 76 53 24 12 5 358
274 278 284 296 298 262 254 246 262 283 301 81 124 202 242 217 218 213 212 235 301 202 117 53 82 122 108 72 253 217 70 243 203 172 124 124 214 253 239 222 169 214 255 309 350 300 285 305 121 108 340 188 164 160 191 240 217 203 210 175 187 296 316 274 257 239 248 244 189 140 40 295 259 264 193 148 130 120 119 112 112 100 76 57 31 24 10 6
270 273 274 282 284 270 262 258 258 254 177 94 150 204 187 216 238 233 220 223 225 197 82 74 93 101 139 229 228 158 139 244 199 142 101 132 178 258 255 239 189 185 234 341 317 260 268 300 214 173 199 170 178 176 158 148 183 216 169 128 169 174 226 255 248 231 266 272 240 155 14 260 251 279 131 125 125 123 118 118 112 101 100 104 68 41 20 6
267 270 273 282 282 273 262 254 246 210 164 137 191 206 199 217 238 241 241 231 139 171 118 101 126 166 234 240 228 185 213 246 179 119 191 183 195 223 218 211 190 171 151 178 252 213 225 255 267 232 204 150 169 99 102 92 323 254 111 101 214 195 205 257 260 184 276 300 272 184 210 229 175 112 122 124 135 133 125 119 105 91 81 74 48 27 14 359
261 267 273 274 273 271 254 240 226 183 166 167 202 215 213 221 218 211 227 172 134 145 128 177 176 198 248 231 214 225 295 269 148 92 228 210 218 228 217 199 179 180 175 169 235 255 242 261 301 8 342 71 36 12 31 94 185 225 81 172 231 187 137 276 298 13 59 303 272 189 246 261 111 130 152 146 157 144 124 104 93 75 54 59 45 5 360 354
240 246 258 256 252 255 244 228 200 168 166 186 212 221 220 227 234 237 206 119 304 99 114 248 199 183 245 255 207 206 151 14 153 157 240 217 226 221 203 188 168 189 189 148 225 266 274 269 249 167 298 357 22 356 316 239 133 132 193 209 212 53 83 123 311 1 23 275 259 177 223 242 207 222 183 166 174 149 115 100 97 77 65 80 305 2 1 347
216 218 250 237 231 242 242 215 178 163 171 207 226 235 233 231 237 238 154 124 300 94 143 235 210 179 224 256 243 178 154 172 168 179 234 222 228 192 169 174 178 190 116 84 177 293 52 264 261 254 251 225 45 358 269 221 95 125 217 228 99 121 202 146 148 220 244 267 270 235 236 231 216 210 175 177 180 141 100 84 83 60 61 62 348 5 352 337
182 173 247 208 213 232 224 188 166 168 206 205 222 233 227 232 241 236 178 156 167 146 178 223 217 215 226 228 255 148 158 190 178 182 221 208 228 186 162 173 171 147 47 82 168 236 71 234 256 299 274 246 78 188 201 202 108 81 357 326 105 169 194 172 164 185 227 260 278 280 273 243 220 193 157 162 152 126 105 62 62 44 56 44 6 356 339 336
173 218 219 184 200 213 189 165 164 195 207 211 220 227 223 233 240 227 207 199 187 168 196 214 205 227 241 233 246 215 191 210 203 206 218 198 230 223 180 169 145 135 48 49 85 91 88 224 239 310 316 265 174 197 193 191 180 153 172 208 203 185 162 201 232 166 209 249 262 280 279 251 222 196 128 131 129 130 135 128 154 152 93 56 10 354 339 337
174 244 204 181 189 179 157 156 195 196 208 225 226 232 235 238 239 226 207 202 207 200 206 228 228 235 248 245 244 227 207 225 218 218 232 214 218 232 201 158 143 144 95 50 49 187 160 215 231 237 246 224 223 221 186 180 177 181 194 197 198 190 155 215 250 196 193 237 219 251 272 257 200 201 118 122 130 133 134 141 157 125 89 53 2 354 340 333
195 227 175 174 177 164 158 190 206 188 220 223 221 230 230 234 236 221 197 199 214 213 217 237 238 239 247 245 241 223 205 236 228 212 230 220 202 219 232 141 141 147 134 119 208 221 131 76 257 254 252 246 262 346 121 194 208 220 229 204 188 185 167 198 239 224 189 236 216 241 271 270 182 148 127 127 141 144 141 127 108 94 84 50 352 347 337 331
209 202 141 166 175 171 182 222 193 203 230 220 227 236 227 230 227 203 192 198 202 193 212 231 224 229 238 232 234 233 210 242 245 226 233 229 205 235 281 136 144 142 122 125 136 59 63 76 254 276 300 319 306 326 325 313 10 252 237 203 185 198 189 203 232 208 161 231 212 220 257 262 240 141 133 139 160 160 137 107 97 93 84 31 348 342 340 334
201 182 120 174 187 189 206 210 195 213 225 218 233 236 230 230 218 207 205 196 186 184 212 231 220 224 229 206 217 228 202 224 252 231 217 219 211 325 349 115 144 142 125 162 173 174 189 151 134 306 302 289 286 295 271 225 195 230 226 194 204 217 211 252 248 117 253 240 219 225 249 248 219 171 159 160 182 179 118 99 101 97 73 360 348 345 341 334
187 193 132 175 193 206 225 218 211 222 215 216 229 230 233 236 217 214 218 209 199 197 217 240 222 215 215 189 212 230 210 214 245 231 193 215 248 349 357 18 72 104 116 72 114 191 195 160 156 202 263 265 270 274 250 208 191 226 224 200 211 216 214 229 223 197 239 240 222 225 246 249 218 191 184 187 221 263 43 83 94 85 52 358 355 346 337 333
184 203 159 154 191 222 253 277 248 236 216 215 229 226 226 233 224 213 218 222 218 213 227 244 214 203 206 189 212 237 227 217 228 235 202 199 291 358 15 27 46 77 112 61 36 111 127 188 210 217 241 252 263 275 236 161 176 199 205 202 209 216 215 215 213 219 234 255 245 233 241 261 257 242 251 273 284 302 358 74 72 50 9 356 357 338 333 332
201 210 179 152 170 217 239 247 230 233 226 219 229 229 220 224 226 207 203 215 220 219 231 236 212 201 192 187 213 237 237 223 226 241 230 185 109 17 30 54 58 55 90 63 20 84 117 243 225 224 242 250 261 272 205 172 205 215 205 200 207 214 213 209 218 228 231 271 259 245 233 252 258 258 265 267 283 309 18 82 69 6 330 341 350 338 333 328
209 224 182 170 181 198 205 213 213 222 231 227 229 240 233 226 223 208 195 208 219 213 216 227 221 212 203 203 213 235 241 227 224 237 229 185 128 138 32 24 11 349 62 61 360 92 137 249 225 220 247 253 258 261 236 214 229 229 216 208 215 220 218 218 227 234 230 238 254 260 251 250 256 262 264 267 294 325 100 116 134 310 348 353 350 338 329 322
204 262 192 181 201 205 194 196 199 211 223 224 226 236 237 233 232 225 189 180 222 217 206 223 227 213 211 215 214 230 240 224 227 237 214 175 165 156 147 300 215 164 79 110 84 108 164 249 224 221 253 257 252 256 256 255 258 252 238 225 228 234 231 231 235 234 232 242 254 263 264 263 264 262 270 283 293 159 137 129 97 13 5 354 343 330 320 315
194 209 185 186 220 220 199 190 191 205 217 220 227 230 228 230 232 227 194 187 216 210 192 223 234 217 210 217 216 229 234 218 230 240 189 162 198 175 182 212 158 141 155 154 160 222 213 224 167 197 257 261 244 243 257 262 264 264 257 241 239 246 245 242 240 234 234 245 252 256 263 267 264 258 270 275 208 149 130 109 45 28 12 350 333 319 313 309
207 203 187 186 230 215 207 193 188 202 216 215 221 220 217 226 226 221 218 217 221 213 191 215 231 226 214 221 222 230 236 227 234 240 194 183 207 190 188 188 152 152 176 172 169 201 208 222 97 141 248 258 221 215 244 269 280 272 263 247 235 240 242 238 234 228 227 239 248 251 255 260 262 260 255 228 171 138 124 113 71 22 8 343 318 308 309 311
209 211 193 197 234 214 210 203 187 204 221 211 206 211 217 224 217 212 227 231 224 226 221 219 226 226 226 233 232 234 236 225 224 242 177 178 185 162 170 169 159 158 163 171 180 183 184 200 157 161 228 272 114 156 207 346 302 272 255 231 222 229 237 239 238 233 228 231 241 244 244 253 262 253 234 219 165 129 121 121 131 225 305 309 303 299 306 312